Regional Weather Roundup
Issued by NWS

Home | Current Version | Previous Version | Graphics & Text | Print | Product List | Glossary On
Versions: 1 2 3 4 5 6 7 8 9 10 11 12 13 14 15 16 17 18 19 20 21 22 23 24 25 26 27 28 29 30 31 32 33 34 35 36 37 38 39 40 41 42 43 44 45 46 47 48 49 50
000
ASUS45 KBOU 292307
RWRCO

WEATHER ROUNDUP FOR COLORADO
NATIONAL WEATHER SERVICE DENVER/BOULDER CO
500 PM MDT FRI MAY 29 2015

NOTE: "FAIR" INDICATES FEW OR NO CLOUDS BELOW 12000 FEET WITH NO
SIGNIFICANT WEATHER AND/OR OBSTRUCTIONS TO VISIBILITY.

COZ001>005-013-030-031-300000-
...NORTHWEST COLORADO...

CITY           SKY/WX    TMP DP  RH WIND       PRES   REMARKS
CRAIG          PTSUNNY   63  42  46 NE10      30.27S
HAYDEN         PTSUNNY   57  36  44 E7        30.28S
MEEKER         MOSUNNY   62  41  46 NE9       30.26S
MOUNT WERNER   NOT AVBL
STEAMBOAT SPGS PTSUNNY   55  39  54 W6        30.30S
WALDEN         PTSUNNY   50  36  57 NW7       30.34S
$$

COZ006>008-011-300000-
...WEST CENTRAL VALLEYS...

CITY           SKY/WX    TMP DP  RH WIND       PRES   REMARKS
GRAND JUNCTION SUNNY     73  39  29 W8        30.14F
MONTROSE       MOSUNNY   72  36  26 N5        30.20F
EAGLE          PTSUNNY   72  39  30 W6        30.24S
RIFLE          MOSUNNY   68  37  32 W8        30.18F
DELTA          MOSUNNY   78  31  17 SW17      30.15S
NUCLA          MOSUNNY   72  30  21 N6        30.21F
$$

COZ017>023-064>068-300000-
...SOUTHWEST COLORADO...

CITY           SKY/WX    TMP DP  RH WIND       PRES   REMARKS
DURANGO        SUNNY     73  28  18 W20G31    30.15F
CORTEZ         MOSUNNY   75  28  17 N12G20    30.16F
PAGOSA SPRINGS MOSUNNY   64  24  22 W3        30.24R
TELLURIDE      MOSUNNY   59  28  31 NW7       30.35S
WOLF CREEK PAS NOT AVBL
$$

COZ009-010-012-014-032>034-037-058>063-300000-
...CENTRAL COLORADO...

CITY           SKY/WX    TMP DP  RH WIND       PRES   REMARKS
ASPEN          PTSUNNY   58  33  39 NW9       30.27F
BUENA VISTA    PTSUNNY   63  22  21 NW9       30.25F
COPPER MTN     PTSUNNY   41  23  48 W12G21    30.48R
BERTHOUD PASS  CLOUDY    32  25  74 NW9       30.50S WCI  24
COTTONWOOD PAS PTSUNNY   55  21  26 N5        30.36S
GUNNISON       MOSUNNY   63  30  29 N8        30.28F
KREMMLING      CLOUDY    59  30  33 NW8       30.29R THUNDER
LEADVILLE      PTSUNNY   49  24  37 W9        30.36S
MONARCH PASS   PTSUNNY   37  27  65 W25G33    30.57S
SALIDA         MOSUNNY   66  29  25 W12       30.30S
SUNLIGHT       MOSUNNY   48  32  53 SW3       30.46F
WILKERSON PASS PTSUNNY   46  23  39 CALM      30.46S
$$

COZ069>075-300000-
...SAN LUIS VALLEY/SANGRE DE CRISTO MOUNTAINS...

CITY           SKY/WX    TMP DP  RH WIND       PRES   REMARKS
ALAMOSA        PTSUNNY   61  29  29 VRB5      30.23F
LA VETA PASS   PTSUNNY  N/A N/A N/A MISG      30.38R
SAGUACHE       MOSUNNY   68  27  21 N16G23    30.23R
$$

COZ035-036-038>040-300000-
...NORTHERN COLORADO FRONT RANGE...

CITY           SKY/WX    TMP DP  RH WIND       PRES   REMARKS
DENVER INTL AP LGT RAIN  56  46  69 N21       30.24R
DMNS CITY PARK   N/A     57  46  67 NE10G18   30.24R
AURORA         NOT AVBL
FRONT RANGE AP PTSUNNY   61  48  63 N13G20    30.24R
ERIE MUNI ARPT CLOUDY    57  48  72 NE10      30.25R THUNDER
BOULDER MUN AP PTSUNNY   55  48  76 N7        30.26R THUNDER
CENTENNIAL     PTSUNNY   59  42  53 N21G32    30.24R THUNDER
BROOMFIELD     PTSUNNY   55  50  82 NW9       30.26R
FORT COLLINS   CLOUDY    55  48  76 E7        30.26R
LONGMONT       CLOUDY    61  49  65 CALM      30.27R
$$

COZ041-046-047-076>085-087-088-300000-
...PIKES PEAK/PALMER DIVIDE AND SOUTHERN FOOTHILLS...

CITY           SKY/WX    TMP DP  RH WIND       PRES   REMARKS
COLO. SPRINGS  PTSUNNY   59  45  59 E10       30.22S
A. F. ACADEMY  NOT AVBL
ELLICOTT       LGT RAIN N/A N/A N/A E10       30.19F
FALCON         LGT RAIN  54  42  64 E5        30.26R
FORT CARSON    MOSUNNY   61  45  55 NE9       30.19S
LIMON          SUNNY     62  45  53 N18       30.21R
MONUMENT HILL  PTSUNNY   55  43  62 MISG      30.27R
TRINIDAD       PTSUNNY   69  46  43 E14       30.14F
$$

COZ042>045-048>051-090-091-300000-
...NORTHEAST COLORADO...

CITY           SKY/WX    TMP DP  RH WIND       PRES   REMARKS
GREELEY ARPT   CLOUDY    55  48  76 E10       30.24R
AKRON          PTSUNNY   59  49  69 N21       30.20R
BURLINGTON     MOSUNNY   65  49  56 N18G28    30.15R
WRAY           PTSUNNY   63  49  61 N23G32    30.16F
STERLING       CLOUDY    55  46  71 N15G22    30.21R
HOLYOKE        PTSUNNY   59  48  67 N24       30.19S
FORT MORGAN    PTSUNNY   62  46  55 N16       30.22R
$$

COZ086-089-092>099-300000-
...SOUTHEAST COLORADO...

CITY           SKY/WX    TMP DP  RH WIND       PRES   REMARKS
PUEBLO         PTSUNNY   69  43  38 NE8       30.12R
LA JUNTA       MOSUNNY   74  44  34 NE10      30.11R
LAMAR          MOSUNNY   75  46  35 N6        30.07S
SPRINGFIELD      N/A     72  47  40 NE7       30.12R
$$


USA.gov is the U.S. government's official web portal to all federal, state and local government web resources and services.